Zurück zum Katalog

COSMOS 2499 DEB

AktivPO
NORAD 49942·DEBRIS·🇷🇺 Russia

Gestartet May 23, 2014 von Plesetsk Cosmodrome

Loading…

Nächste Überflüge (nächste 24 Stunden)

TLE

AktuellSource: Space-Track

Epoche: Sep 14, 2026, 12:41 UTC

1 49942U 14028Z   26257.52895549  .00001753  00000-0  65070-2 0  9998
2 49942  82.4578 194.9485 0194543 148.1977 213.1052 12.85823849227697

Verfolge COSMOS 2499 DEB in Echtzeit mit AllMySat

Download on the App Store